Wind_Speed
30 32 32 32 33 33 32 32 32 31 30 28 28 26 23 22 20 18 17 17 16 16 16 17 17 17 16 16 16 15 15 15 15 14 13 12 12 12 11 10 9 9 8 7 6 5 3 2 3 4 4 5 4 4 5 7 8 9 9 10 10 11 11 10 11 12 11 12 10 9 9 9 8 8 8 7 6 6 5 5 5 5 5 5 5
28 31 32 31 31 32 31 31 31 30 29 28 27 25 22 21 19 18 17 17 16 16 16 17 17 16 16 15 15 14 14 14 13 13 12 11 10 11 10 9 9 8 7 6 6 5 4 4 5 5 5 5 5 6 7 8 9 9 10 10 10 11 11 11 10 11 10 10 11 10 10 9 9 8 8 7 6 5 5 5 5 5 6 6 5
27 29 30 30 30 31 31 31 31 29 28 28 26 24 22 20 18 17 17 16 16 15 16 16 16 16 15 15 14 13 13 12 12 11 11 10 10 9 9 8 8 8 7 7 6 6 6 6 6 6 6 6 6 7 8 9 9 10 10 11 10 10 11 11 10 10 10 10 9 10 10 10 9 9 8 6 5 4 4 4 4 5 6 5 6
27 29 29 29 30 30 30 30 29 28 28 27 25 23 21 19 18 17 16 16 15 15 15 15 16 15 15 14 13 12 12 12 12 10 10 10 9 9 8 8 8 8 8 8 8 7 7 7 8 7 7 7 8 9 9 9 9 10 10 11 11 10 10 10 10 10 10 10 9 9 10 10 9 8 8 7 5 4 4 3 3 4 5 5 6
29 30 29 29 29 29 29 28 28 27 27 26 24 22 20 19 18 17 16 16 16 16 16 16 15 15 15 14 13 12 12 12 11 10 9 9 9 8 8 8 9 9 9 9 8 8 8 8 9 9 9 9 9 9 9 9 9 10 10 11 11 9 9 9 9 9 9 9 8 8 10 10 9 9 9 8 7 6 5 4 4 3 4 5 6
30 31 30 29 30 29 29 28 27 26 26 25 24 22 20 19 17 16 16 17 17 17 17 16 15 15 14 14 13 12 12 11 10 9 9 9 9 9 9 9 9 10 10 10 10 10 10 10 10 10 10 10 10 9 9 9 10 10 10 10 11 9 9 9 8 8 8 8 9 9 10 10 10 12 11 10 9 9 8 8 7 5 4 5 6
30 30 29 28 29 29 28 27 27 27 26 25 23 21 20 18 17 16 17 19 19 18 17 16 15 14 14 13 12 12 11 10 9 9 9 9 10 10 10 10 10 11 10 11 11 11 11 11 11 11 11 11 10 10 10 10 10 10 10 10 11 10 9 9 8 8 7 7 10 10 10 11 11 12 11 10 11 11 10 10 10 8 7 6 6
31 30 29 28 28 28 28 28 27 27 25 24 23 21 20 18 17 17 19 20 19 18 17 16 15 14 13 12 12 11 10 10 9 9 9 10 10 11 12 12 11 11 11 11 12 12 12 12 11 11 11 11 10 10 10 9 10 10 10 10 11 10 9 9 8 7 7 6 10 11 10 11 10 11 11 11 12 12 12 11 11 10 10 9 7
31 30 29 29 28 27 28 28 28 26 25 24 22 21 19 18 17 18 20 20 19 18 16 15 14 13 12 12 11 11 10 9 8 8 8 10 10 11 12 12 12 12 12 12 12 12 12 12 11 11 11 11 10 9 9 9 10 10 10 10 11 11 10 9 8 7 7 6 10 11 10 10 10 10 10 10 11 12 12 10 10 10 11 11 9
29 28 27 28 27 27 27 29 28 26 24 23 22 21 19 17 17 18 20 20 18 17 15 14 13 12 11 11 11 11 10 9 8 8 9 9 11 11 12 12 12 12 12 12 13 13 12 12 12 12 12 11 10 9 9 9 10 10 10 10 10 10 10 9 8 7 6 6 9 10 9 9 9 9 9 10 10 11 12 9 9 9 10 11 10
29 27 27 26 26 26 26 28 27 25 24 22 21 20 19 17 17 19 20 19 18 16 14 13 12 11 10 10 11 11 10 10 10 9 9 10 11 11 11 11 11 11 12 13 13 14 13 13 12 12 12 11 11 10 10 9 9 9 9 10 9 9 10 10 9 7 5 5 8 10 8 8 8 8 8 9 9 10 11 9 8 8 8 10 10
29 28 28 27 26 26 26 26 25 24 23 21 20 20 19 17 17 19 19 18 16 15 13 12 11 10 10 9 10 11 11 12 12 11 10 10 10 11 10 10 10 11 12 13 14 14 13 13 12 12 12 11 11 10 10 9 9 9 9 9 9 8 9 9 9 8 6 5 6 8 7 8 8 8 8 8 8 8 8 7 7 7 7 8 9
28 27 27 27 26 26 25 25 24 23 22 21 20 19 18 17 17 18 18 17 15 13 12 11 11 10 9 9 9 10 12 13 13 12 11 10 10 10 10 10 11 12 13 13 13 13 13 13 12 12 12 12 11 10 10 9 9 9 8 8 8 8 8 8 9 8 7 6 6 6 7 8 7 7 8 8 7 6 6 6 6 7 6 6 8
26 25 25 25 24 24 24 24 24 23 22 21 20 19 18 16 16 17 17 15 14 12 10 10 10 9 8 8 9 10 12 13 13 13 12 10 10 10 10 10 11 12 12 12 12 12 13 13 12 12 12 12 12 11 11 10 10 9 7 7 7 7 8 8 8 8 8 8 8 7 7 6 5 6 7 7 6 5 4 4 5 7 7 6 6
25 24 24 23 23 23 24 24 24 24 23 21 20 19 18 16 16 16 15 14 12 10 9 9 8 7 7 7 8 9 11 12 12 12 12 11 11 11 11 11 12 12 11 11 11 12 12 12 12 12 12 12 12 11 11 10 9 8 7 7 6 7 7 7 7 7 8 8 8 9 8 6 5 5 6 6 6 5 3 2 3 6 6 6 6
26 24 24 23 23 23 24 24 24 24 23 22 21 19 18 16 15 15 14 13 11 9 8 8 7 6 6 7 8 8 10 11 11 11 11 11 11 12 12 12 11 11 10 10 11 11 12 12 12 12 12 11 11 10 10 9 8 8 7 7 6 6 6 6 6 7 7 7 8 8 7 6 5 5 4 5 5 3 2 2 4 6 6 5 5
26 24 24 23 23 23 23 24 24 24 23 22 21 19 18 17 16 15 14 12 10 9 8 7 5 5 5 6 7 7 8 9 10 10 10 10 10 11 11 11 10 9 9 9 10 11 11 11 11 11 11 11 10 9 8 8 8 7 7 6 6 6 6 5 6 6 6 6 7 7 7 6 5 5 4 4 3 2 2 4 5 6 5 5 4
26 25 24 23 23 23 23 24 24 24 23 22 21 20 19 17 16 15 13 12 10 9 7 6 4 4 5 6 6 7 7 8 9 9 9 10 10 10 10 10 9 9 9 10 10 10 10 10 10 10 10 9 9 8 8 8 8 8 7 7 6 5 5 4 5 6 5 5 5 6 7 7 7 7 6 4 4 3 4 7 7 6 5 4 4
26 25 24 23 23 23 23 23 24 24 23 22 21 20 19 18 16 15 13 12 10 9 7 5 4 4 5 6 6 6 6 7 7 8 8 9 9 9 9 9 10 9 9 10 10 10 9 9 9 9 9 9 8 7 7 7 8 8 7 7 6 5 5 4 4 4 4 4 4 6 7 7 8 7 7 6 6 5 5 7 7 7 6 4 3
25 24 23 23 23 22 22 23 23 23 23 22 22 21 20 18 17 15 13 12 10 9 7 5 5 5 5 5 5 5 5 6 6 7 8 8 9 9 9 10 10 10 10 10 9 8 8 8 8 9 9 9 9 8 7 7 7 7 7 8 7 6 4 3 3 3 2 2 3 6 6 6 7 6 6 7 7 7 6 7 7 6 6 5 3
26 24 23 23 23 22 22 22 22 23 23 22 21 21 20 18 17 15 13 12 10 8 7 5 5 6 5 5 5 4 4 5 5 7 8 8 9 9 9 10 11 10 9 8 8 8 8 8 8 9 9 9 9 9 9 8 7 7 7 8 8 6 5 3 2 1 0 1 2 4 5 5 5 5 5 6 7 7 6 7 6 6 5 5 4
26 25 23 22 22 22 22 22 22 22 22 21 21 20 19 18 17 15 13 12 10 8 7 6 6 6 6 5 4 4 4 4 5 6 7 8 10 10 10 10 10 9 8 8 8 8 8 8 8 8 8 8 9 9 10 9 7 7 7 7 8 8 6 4 2 2 2 0 2 3 4 4 4 4 4 4 6 6 6 6 6 5 4 5 4
25 25 24 22 22 22 22 21 22 22 22 21 20 19 18 18 16 15 13 11 10 9 8 8 8 7 6 5 4 4 4 4 5 6 7 9 10 10 10 9 9 8 7 7 7 7 7 7 7 7 7 7 8 9 11 10 8 7 7 7 7 7 6 4 3 2 2 2 1 2 3 3 3 4 4 4 5 5 6 6 5 5 3 3 3
24 24 23 23 22 23 22 21 22 22 21 21 20 19 18 17 16 15 13 12 11 9 9 9 9 7 6 5 4 4 4 4 5 6 7 8 9 9 9 9 8 8 7 6 6 6 6 6 6 6 7 7 8 9 10 10 9 7 6 7 6 6 5 4 2 1 1 1 3 3 3 3 3 3 4 5 4 4 5 5 6 5 3 3 2
23 23 22 22 22 22 22 22 22 22 21 20 20 19 18 17 16 15 13 12 12 11 11 10 9 8 6 5 4 4 5 5 6 6 7 8 8 8 8 8 8 7 6 5 5 6 6 6 7 7 7 7 8 9 9 9 9 7 6 6 5 5 5 5 3 1 2 3 4 5 4 4 4 3 3 5 5 5 4 5 6 4 4 5 2
22 22 21 22 22 22 23 22 22 22 21 20 19 19 18 17 16 15 14 13 12 12 12 11 10 8 7 5 4 5 5 6 5 5 6 7 7 7 7 7 6 6 5 5 5 6 6 7 7 8 8 7 7 8 8 9 8 7 6 6 5 4 4 5 4 1 3 3 5 6 6 5 4 2 3 5 5 5 4 4 5 4 4 6 3
21 21 20 21 22 22 23 22 22 22 21 20 19 19 18 17 16 15 14 14 13 13 12 11 10 8 7 6 6 5 5 6 5 5 6 6 7 6 6 6 6 5 5 5 5 5 6 7 8 8 8 8 7 7 8 8 8 7 7 6 6 4 4 4 4 2 2 2 4 6 7 6 6 4 3 3 5 6 5 3 4 3 3 4 4
20 20 20 20 21 22 23 23 22 22 21 20 20 19 19 17 16 16 15 15 14 14 13 11 10 9 8 7 7 6 6 6 5 5 5 5 5 5 5 5 4 4 4 4 4 5 5 7 8 8 8 9 8 8 8 8 7 8 7 7 6 4 4 3 3 3 3 1 2 5 7 7 7 6 5 3 4 5 5 4 4 3 2 2 3
19 20 20 20 20 21 22 22 22 22 21 21 20 19 19 18 17 17 16 16 15 14 13 12 10 9 8 8 8 7 7 6 6 5 5 4 4 4 4 3 3 3 3 3 3 4 5 7 8 8 9 9 9 9 9 7 7 7 7 7 6 5 4 4 2 3 4 2 1 4 6 7 7 6 5 3 2 4 4 4 4 4 3 3 2
19 20 20 20 21 21 22 22 22 22 21 21 21 20 19 19 18 18 17 16 16 15 13 12 10 10 9 9 8 7 7 6 6 5 4 4 3 3 2 2 2 3 3 3 4 4 5 6 7 8 9 9 9 9 8 7 6 5 7 7 7 7 5 5 3 3 4 3 1 3 5 6 6 6 6 4 4 4 4 4 4 3 4 3 2
20 21 21 21 21 22 22 22 22 22 22 22 21 20 20 19 19 18 17 17 16 15 13 12 11 10 10 10 9 7 6 6 5 5 4 3 2 2 2 2 2 3 3 4 4 5 5 6 7 8 8 9 9 9 7 6 5 5 5 5 6 6 6 6 3 3 5 4 2 1 2 4 6 6 6 6 6 5 5 5 4 3 3 3 3
20 21 22 23 22 23 22 22 23 23 22 22 21 20 20 20 19 19 18 17 17 15 13 13 12 12 11 10 9 8 7 6 5 5 4 3 1 1 1 1 2 3 4 5 5 6 5 6 7 8 8 7 8 8 6 5 5 5 5 4 5 5 5 7 4 2 6 7 5 3 2 3 5 5 5 5 5 5 5 5 5 4 3 2 3
19 21 22 23 23 23 23 22 23 23 22 22 21 21 21 20 20 19 18 18 16 15 14 13 13 12 12 11 9 8 7 6 6 5 3 2 1 1 1 2 3 4 5 6 6 6 6 7 7 7 7 6 5 6 5 4 3 3 4 3 4 5 6 7 4 3 7 8 6 5 4 3 5 5 5 6 5 5 6 5 5 4 3 3 3
19 21 23 23 23 23 23 23 23 23 23 22 22 22 21 20 20 19 18 17 16 15 14 14 13 13 12 11 10 8 7 7 6 5 4 3 2 1 1 1 2 4 5 6 6 7 7 7 7 6 6 5 5 5 5 4 2 2 4 3 4 4 6 6 2 5 7 7 6 5 4 3 4 5 5 5 6 6 6 5 5 4 3 3 3
21 22 23 23 23 23 23 23 23 23 23 23 23 22 21 20 20 19 18 17 16 15 15 14 14 13 12 11 10 9 8 7 7 6 5 4 3 2 1 1 2 3 4 5 6 7 7 7 6 6 5 5 5 5 6 5 2 1 2 3 4 5 6 5 2 5 6 6 6 5 6 4 5 6 5 4 5 6 6 5 5 4 3 4 4
23 22 23 23 23 23 23 23 23 23 23 24 23 23 22 21 20 19 18 17 15 15 15 14 14 13 12 11 10 9 8 7 6 6 5 5 4 3 2 1 1 2 2 4 5 6 5 5 5 5 4 5 5 6 6 7 5 2 1 3 4 4 5 4 2 6 6 5 5 5 5 6 6 7 6 5 5 7 7 6 6 5 4 5 6
23 23 24 24 24 24 24 23 23 23 24 24 23 23 22 21 21 19 18 17 16 16 15 15 14 14 13 12 11 10 9 7 7 6 5 5 4 3 2 1 1 1 2 3 4 3 3 3 3 3 3 4 4 5 6 6 7 5 3 3 3 3 3 2 3 7 8 5 4 4 4 5 5 5 5 5 5 6 6 6 7 6 6 7 7
25 25 25 25 25 25 24 24 24 24 24 24 23 23 23 22 21 20 19 18 17 17 16 16 15 14 13 12 11 11 9 8 7 6 5 5 4 3 2 1 1 1 2 3 2 1 1 1 1 2 3 4 4 5 5 6 6 5 4 3 1 1 2 2 5 9 9 5 4 4 4 4 4 5 5 5 6 6 5 6 7 7 7 8 8
27 27 27 26 26 26 26 26 26 26 25 25 25 24 24 23 22 21 20 19 19 18 17 16 15 14 13 13 12 11 10 9 8 7 6 5 4 3 2 1 0 1 2 2 1 1 0 1 1 1 2 4 5 6 7 7 6 5 4 2 1 2 2 3 6 9 9 5 4 3 3 5 6 6 6 6 6 6 6 6 7 7 8 9 8
28 29 29 28 28 28 28 28 27 27 27 27 26 26 25 24 23 21 20 19 19 18 17 16 15 15 14 14 13 12 12 10 9 8 7 6 5 3 2 1 1 1 1 1 0 1 0 1 1 2 3 4 6 8 9 7 6 5 5 4 3 4 3 4 7 9 8 6 4 3 2 4 6 7 8 8 7 7 7 7 8 8 8 9 9
29 30 30 30 29 29 29 28 28 28 29 28 27 25 24 23 22 20 19 18 18 18 17 17 16 16 16 16 15 14 13 12 10 9 8 7 5 4 3 2 1 1 0 1 2 1 0 0 1 2 4 5 7 8 8 7 5 5 5 6 5 5 5 5 6 7 7 6 4 1 2 3 5 6 8 9 9 8 7 7 8 8 8 9 9
30 30 31 31 30 30 29 29 29 29 29 27 26 24 23 21 20 19 17 17 17 17 17 17 17 18 17 17 16 15 14 13 12 10 9 8 6 5 3 2 1 1 1 3 3 2 1 1 1 2 3 5 7 9 8 6 5 5 5 7 7 8 8 6 7 8 7 7 5 1 1 3 4 5 5 7 7 7 8 9 9 8 8 8 8
30 30 31 31 31 31 30 30 30 29 28 27 26 24 22 21 20 19 18 18 17 17 18 18 18 18 18 18 18 17 16 14 13 11 10 9 7 6 4 2 1 1 3 4 5 4 3 2 1 2 3 5 8 9 9 7 6 5 4 6 8 9 9 9 9 9 9 7 4 1 1 3 4 5 5 4 2 3 5 8 9 10 9 9 9
29 30 31 32 32 31 30 30 29 28 27 26 25 24 23 22 22 20 20 19 19 19 19 19 19 19 19 19 18 17 16 15 14 12 11 10 8 7 5 3 2 3 5 6 6 5 4 2 1 1 3 5 7 8 8 8 7 5 4 5 6 7 7 8 10 10 9 7 4 2 1 2 3 4 5 4 1 3 1 3 5 8 10 10 10
29 29 31 32 32 31 30 29 29 28 27 26 25 24 24 24 24 23 22 21 21 20 20 19 19 19 19 18 18 17 17 16 15 13 12 11 9 8 6 4 4 5 6 7 7 5 4 3 2 0 2 5 6 6 7 8 8 7 5 5 5 5 4 5 7 7 7 6 4 3 1 1 2 4 5 4 2 3 2 2 2 3 5 7 8
28 28 29 31 31 31 30 30 29 28 27 26 26 25 25 25 25 24 22 21 19 18 17 16 17 17 17 17 17 17 17 17 16 14 13 11 10 9 7 6 5 6 8 8 7 5 5 4 3 1 2 4 4 5 6 7 8 9 7 6 5 4 4 4 5 5 6 6 4 3 2 1 2 2 2 4 4 3 3 1 1 1 2 3 5
27 27 28 30 31 30 30 29 29 28 28 27 27 26 26 26 25 23 21 20 18 15 13 14 14 15 16 17 16 17 17 17 17 15 14 12 11 10 8 7 7 8 9 9 8 7 6 5 3 2 2 3 3 4 5 6 8 9 9 8 6 4 3 3 5 5 4 4 3 2 2 1 1 2 2 3 4 3 2 2 1 1 1 1 2
26 28 28 29 30 30 30 29 29 28 27 27 27 26 26 26 24 23 22 20 18 16 15 14 14 15 16 17 17 17 17 17 17 16 15 14 13 11 9 8 8 10 11 11 9 8 8 6 4 2 2 2 2 3 4 6 8 8 9 9 8 6 4 3 4 4 3 3 2 1 1 1 1 1 2 3 2 3 3 2 1 1 1 1 1
26 27 27 28 30 31 31 30 29 28 27 27 27 27 26 26 25 24 23 21 19 18 18 17 16 16 16 16 17 17 17 17 17 17 16 15 14 13 11 10 10 12 13 12 11 11 10 8 6 3 2 1 2 3 4 6 7 8 9 10 10 9 7 5 4 4 3 3 2 1 1 1 2 1 2 2 3 5 5 3 2 1 1 1 1
27 26 28 29 30 32 32 32 30 29 28 27 27 27 27 26 26 25 24 23 21 20 19 18 17 16 15 13 13 13 14 16 17 18 18 17 16 14 12 11 11 14 15 14 13 13 11 9 7 4 3 2 3 4 5 6 7 8 9 10 10 10 9 8 6 4 4 3 1 1 1 1 2 2 3 3 4 5 6 5 4 3 2 2 2
27 28 29 30 31 32 34 33 32 30 30 29 28 28 28 28 26 25 24 23 22 21 20 19 16 14 12 10 9 9 10 12 15 17 18 17 17 15 13 12 13 15 16 16 16 15 13 11 8 6 5 5 4 3 4 5 6 7 8 9 10 10 10 9 8 6 5 3 1 1 1 2 2 3 3 4 5 5 5 5 5 4 4 4 4
Wind_Direction
137 138 138 138 141 141 140 141 141 140 140 141 142 140 137 132 127 124 123 121 119 118 116 114 114 118 119 113 106 101 97 96 94 94 92 88 88 91 94 98 99 100 102 103 103 101 92 65 48 43 48 54 64 77 80 75 67 64 62 61 54 51 59 72 96 109 117 127 130 130 130 136 144 147 149 153 164 172 177 189 198 194 196 200 197
140 140 138 140 142 139 139 142 142 142 141 142 143 141 136 131 127 126 125 122 120 117 114 113 115 119 118 112 105 101 99 96 94 92 89 86 85 88 90 92 93 92 92 91 89 89 83 72 66 65 66 72 84 89 84 76 66 63 64 63 59 57 62 70 89 105 107 113 122 127 128 130 133 138 142 146 155 166 170 180 185 175 187 199 200
141 141 139 139 139 138 141 143 142 142 142 143 142 140 135 131 129 129 126 122 118 115 113 113 116 118 116 110 106 102 99 95 92 89 87 84 83 85 86 86 87 85 82 81 81 81 80 74 73 75 76 78 87 89 85 78 70 67 67 67 66 64 67 71 82 99 107 110 117 123 125 125 127 134 134 136 146 159 169 175 182 176 184 192 196
142 143 141 139 138 140 143 142 142 144 144 144 142 139 135 132 131 129 124 119 116 113 113 114 115 113 111 108 104 100 96 92 90 88 84 81 80 82 83 81 80 78 77 78 79 80 79 75 75 78 80 83 88 92 88 81 76 73 71 70 70 73 75 77 82 93 105 112 118 121 120 120 121 120 116 117 126 134 148 163 178 180 182 185 189
142 143 143 142 143 144 144 144 145 147 146 144 142 139 136 134 131 126 121 116 114 114 113 113 111 108 106 104 101 97 92 89 89 87 81 75 73 75 79 80 80 79 78 80 80 81 81 77 78 81 83 85 89 91 88 82 78 75 75 71 70 78 83 85 90 95 102 109 116 119 117 118 115 107 103 103 104 104 110 121 138 160 172 174 177
144 144 144 145 146 147 147 147 148 150 148 144 143 140 136 133 129 123 118 115 113 113 112 110 106 104 102 99 97 92 88 87 87 84 78 71 68 71 77 82 83 82 80 81 83 84 84 84 84 84 84 84 86 84 82 79 77 78 77 69 65 78 93 93 96 102 108 117 119 117 116 116 112 105 102 99 96 95 97 100 101 113 139 156 162
146 146 146 147 148 149 148 149 151 152 150 146 144 141 137 133 127 122 117 115 114 112 109 105 102 99 97 95 92 88 85 83 82 80 74 69 70 76 82 84 84 84 84 84 87 90 90 90 89 86 84 82 82 81 81 79 78 80 78 69 62 76 99 99 98 104 107 116 114 112 112 112 109 104 101 96 93 92 93 96 92 94 106 121 144
147 147 147 149 149 149 149 151 154 154 151 149 145 141 137 132 125 121 119 116 113 110 106 103 100 99 97 93 89 84 81 79 80 80 76 71 74 82 85 86 86 87 89 88 91 94 94 93 89 85 80 75 75 78 82 83 80 80 81 76 67 75 98 103 100 98 96 98 99 104 111 111 110 107 102 96 92 91 91 94 92 91 94 97 115
149 148 149 151 150 150 150 153 157 156 153 150 146 142 137 129 124 122 120 117 113 109 106 105 103 101 97 91 85 79 77 78 83 84 82 79 82 88 88 88 89 90 89 91 94 95 93 89 85 80 75 71 71 73 78 82 80 78 78 77 70 73 91 105 102 95 95 91 92 100 108 109 111 109 104 99 96 92 90 92 93 92 90 87 93
150 149 150 151 152 152 151 155 159 158 154 150 146 143 137 129 126 125 121 118 114 110 108 106 104 101 95 86 78 74 75 82 88 89 87 87 90 93 91 91 90 90 88 88 90 90 87 82 80 75 72 69 68 68 70 76 80 80 78 76 73 74 82 96 98 93 97 95 94 98 104 109 110 104 101 100 97 90 87 89 93 92 91 90 93
152 152 153 153 153 153 152 155 159 157 152 150 148 145 138 132 129 127 123 119 115 112 109 106 101 96 89 79 71 72 78 85 89 89 91 93 95 97 95 94 92 89 88 88 87 85 82 77 73 69 66 65 66 66 67 74 83 85 82 78 76 78 79 85 89 90 99 98 96 100 105 108 105 96 94 97 97 90 84 85 93 95 99 102 104
153 155 158 157 156 156 155 156 157 154 153 152 151 149 142 136 133 129 124 121 118 114 109 103 97 90 84 74 69 75 82 86 86 87 93 98 98 100 97 95 92 90 90 89 86 81 76 71 66 64 64 64 64 65 67 72 83 86 81 77 73 77 80 83 89 90 96 95 93 100 102 101 101 96 95 96 96 94 84 80 98 108 109 107 110
154 156 158 159 158 158 158 157 157 156 157 158 156 152 146 140 136 131 127 125 121 116 110 101 93 89 83 74 72 79 85 85 84 86 91 99 100 98 97 95 91 90 90 87 83 77 72 69 67 66 67 67 67 68 69 71 76 79 76 72 64 67 76 81 90 91 91 91 92 96 95 96 98 99 100 93 84 82 70 69 102 123 122 116 117
156 157 158 160 159 158 158 158 159 161 162 163 161 155 151 146 139 134 130 129 124 119 111 99 92 90 86 78 77 82 85 84 84 85 88 93 94 92 92 92 92 92 89 84 77 74 72 72 73 72 71 70 71 73 74 75 74 74 72 70 62 59 67 75 85 92 93 91 92 94 94 97 100 99 100 94 87 77 54 53 102 128 131 130 128
158 160 161 162 161 160 160 161 162 165 167 167 164 159 156 152 144 139 135 133 128 123 112 99 93 92 91 83 80 85 87 85 84 84 86 88 87 87 86 88 94 95 88 78 71 70 72 72 75 76 72 70 72 73 73 74 73 70 65 62 59 56 61 69 77 87 93 93 93 96 97 103 105 93 91 95 95 78 46 47 110 132 137 136 139
161 163 164 165 164 163 163 164 167 168 170 170 167 163 161 157 151 145 142 139 133 127 116 102 95 96 97 89 85 91 91 85 83 82 84 88 87 86 85 86 92 93 83 70 66 68 69 69 72 71 68 68 68 69 67 65 65 64 61 57 52 53 61 65 71 79 86 93 95 99 102 106 104 87 79 81 83 72 58 96 115 135 145 142 146
164 165 166 168 167 166 165 167 169 170 172 171 170 168 165 161 158 153 148 145 139 133 120 108 105 107 105 95 90 94 93 84 80 80 81 88 91 89 86 87 88 87 77 67 68 69 68 66 67 65 63 63 63 64 62 60 61 61 61 56 47 45 57 66 70 74 78 88 96 104 107 107 100 94 88 68 77 115 122 111 112 124 136 145 151
166 168 168 170 169 168 168 170 170 171 172 172 173 171 169 166 163 159 154 150 146 138 127 120 120 124 115 98 91 93 91 82 78 77 78 84 91 93 90 88 86 83 77 75 74 70 67 64 63 61 58 55 56 60 62 62 59 59 56 51 46 41 48 59 67 73 77 82 96 106 110 113 107 103 104 87 86 114 119 118 121 116 115 134 155
169 171 171 172 171 170 170 171 172 172 172 173 174 174 172 170 167 163 159 157 151 143 135 135 137 139 124 103 96 93 89 82 77 73 72 79 87 92 93 92 89 86 82 80 79 74 70 65 62 57 53 51 55 61 66 70 65 59 53 46 43 38 38 43 54 64 78 87 104 108 109 114 114 109 107 95 81 89 112 120 126 122 105 107 136
173 174 174 175 174 173 172 172 173 171 172 173 175 175 175 172 170 167 164 161 154 147 144 148 153 148 133 112 101 93 88 79 70 68 67 75 86 90 93 94 91 88 84 82 82 79 72 67 61 53 53 54 57 60 66 72 71 65 55 48 43 37 32 35 40 43 71 100 107 105 106 109 117 120 113 101 85 85 106 114 119 122 106 89 88
178 178 179 179 177 175 173 172 173 172 172 173 175 176 175 175 173 171 169 165 157 153 154 161 163 155 142 122 109 96 87 79 70 70 71 76 88 92 94 94 92 89 85 82 79 74 68 64 59 53 51 52 53 55 59 64 68 67 59 54 53 49 37 29 34 1 283 142 106 106 108 109 120 127 120 108 96 92 99 107 111 111 105 92 76
181 181 183 182 179 177 174 173 173 174 174 174 175 176 176 175 174 174 172 166 160 159 164 172 171 161 150 132 117 103 92 89 82 80 86 88 92 96 97 97 96 90 81 73 68 65 62 59 57 55 51 49 50 53 57 58 60 65 62 59 57 54 42 26 21 311 284 316 127 127 117 117 120 116 117 110 101 97 93 105 113 106 102 100 90
181 182 184 184 181 179 176 175 174 175 176 176 176 176 176 176 175 175 172 166 164 167 173 179 175 164 155 145 129 113 106 103 96 95 98 95 96 99 100 100 96 88 78 67 61 57 56 54 52 51 50 49 48 50 54 53 52 55 59 59 57 55 47 36 21 311 302 325 263 164 142 146 133 122 127 121 109 97 90 104 112 107 96 94 107
181 182 184 184 183 180 177 176 175 176 176 178 178 178 178 177 177 176 173 171 171 175 180 182 175 166 159 155 139 125 123 115 110 110 104 99 99 101 102 100 94 88 79 66 55 44 44 45 40 40 46 50 49 48 49 49 50 50 51 53 50 50 47 40 22 277 237 254 257 224 189 183 167 151 140 130 124 104 95 103 107 114 97 69 86
181 183 184 183 182 180 178 176 176 178 178 179 179 180 180 180 179 177 176 175 176 181 184 182 175 167 163 160 149 139 135 124 121 117 108 104 103 102 102 98 93 91 80 65 48 31 30 31 32 34 35 39 41 46 47 45 48 48 43 42 38 39 35 20 9 205 186 209 230 224 210 201 201 186 154 144 136 121 115 114 117 130 107 85 65
182 183 183 182 181 179 179 178 177 179 180 180 180 181 182 182 181 178 179 179 181 185 183 182 176 170 168 164 160 154 143 134 128 119 110 106 106 106 104 100 95 90 77 60 38 21 18 19 23 22 22 23 20 29 37 37 41 42 35 30 26 29 34 15 5 98 172 200 210 216 211 201 205 203 178 164 147 137 133 132 134 132 108 107 111
182 182 183 182 181 179 180 180 180 181 182 182 182 182 182 183 183 180 181 183 185 186 183 182 177 173 173 171 168 161 150 140 129 119 113 109 111 112 107 102 93 82 67 52 30 16 10 9 15 10 13 18 10 13 23 29 34 32 27 23 17 13 29 20 8 67 129 196 209 215 212 204 199 199 213 191 160 154 142 143 148 132 114 120 126
185 181 182 182 181 180 182 182 181 182 183 184 183 183 183 183 184 182 183 185 186 185 183 182 178 177 179 177 173 164 154 145 135 129 122 115 113 111 105 97 90 80 61 45 25 15 6 4 10 5 7 11 6 6 11 27 32 19 14 15 11 359 3 8 13 75 97 106 221 225 217 207 194 199 227 216 169 161 153 161 160 151 149 132 127
186 182 182 183 182 182 183 183 182 183 184 185 184 183 184 184 184 184 185 186 187 186 183 182 180 181 182 180 179 170 159 152 145 139 132 122 113 109 101 92 89 81 63 46 23 15 7 3 2 358 1 2 1 5 6 24 34 12 4 2 355 350 354 351 5 101 116 113 182 228 220 208 193 201 230 225 175 161 156 164 162 172 175 153 141
186 184 184 184 183 184 184 183 183 184 184 184 184 184 184 184 184 185 185 185 187 188 184 181 181 183 184 184 185 178 166 157 151 149 145 135 125 115 102 92 80 63 44 29 18 12 6 1 358 354 358 358 359 5 6 16 28 13 1 354 341 341 343 331 335 122 132 123 157 223 216 211 198 198 219 210 185 173 162 168 169 185 187 174 176
186 186 186 185 186 185 184 184 183 183 183 182 183 184 184 184 184 185 186 187 188 188 184 182 183 184 186 188 189 184 173 168 165 159 155 147 138 124 109 95 60 42 21 12 8 8 6 1 358 354 357 1 359 2 4 7 20 16 356 345 334 330 327 320 325 134 144 131 130 201 207 219 215 206 217 206 184 182 181 179 180 195 198 190 203
188 189 189 187 188 187 184 185 185 183 182 182 183 184 185 184 185 186 187 188 190 188 186 185 185 186 187 189 191 185 178 178 176 167 161 159 161 138 98 58 34 29 17 10 7 6 8 4 1 357 0 7 1 357 360 1 14 7 343 336 326 315 304 297 297 142 141 133 142 183 195 219 238 243 238 225 193 192 200 188 184 199 204 212 225
190 191 192 190 189 187 185 186 186 184 182 182 183 184 185 185 186 189 189 190 191 189 189 189 188 188 188 190 191 186 182 183 183 179 173 178 205 262 28 36 25 22 16 13 12 8 6 5 8 5 5 12 1 351 350 351 1 347 333 332 309 295 283 273 269 120 128 133 144 181 203 216 250 260 246 234 212 205 215 206 201 203 200 216 233
193 195 194 192 191 188 187 188 187 184 183 184 185 185 186 187 189 191 192 193 193 191 192 192 191 191 190 191 191 187 187 187 189 189 183 188 207 245 324 33 26 20 15 12 11 7 4 5 9 7 7 12 358 345 344 347 348 325 326 319 282 272 268 259 226 113 126 141 148 172 206 230 249 249 249 247 230 217 215 216 220 211 202 213 220
196 197 196 194 193 190 190 191 189 185 186 187 186 186 187 189 192 193 195 196 195 193 194 195 194 193 192 193 192 190 192 192 193 190 186 187 198 219 229 75 43 23 11 7 5 0 359 3 5 4 5 5 357 349 351 351 349 327 317 299 260 249 251 242 157 113 120 138 154 174 198 215 211 211 228 244 244 237 222 224 235 217 202 222 231
197 197 196 196 195 193 193 193 191 188 189 190 188 188 189 190 193 195 197 197 196 195 196 198 197 195 194 195 195 194 196 196 194 191 189 190 198 213 204 137 87 38 13 2 0 355 354 0 2 0 359 2 5 3 1 358 3 42 335 284 251 233 235 229 149 124 124 134 156 182 203 218 206 198 210 216 229 244 233 228 238 229 216 227 238
197 197 197 197 196 195 194 194 193 192 192 192 191 191 192 193 195 197 199 198 198 198 199 200 199 199 199 200 200 200 199 199 198 196 195 197 205 217 203 144 110 58 18 357 1 359 352 354 354 352 1 15 22 14 11 12 14 34 22 309 247 211 214 206 149 135 131 139 164 184 207 224 214 197 206 215 222 237 237 234 238 242 237 232 236
198 198 198 197 197 196 196 195 194 194 195 194 194 194 196 197 198 200 201 199 199 200 202 202 202 202 203 204 204 204 203 201 202 203 202 204 210 216 202 157 117 28 1 352 4 26 347 348 355 357 12 25 32 27 25 27 27 43 32 340 256 167 186 166 149 141 134 146 176 191 216 228 221 204 202 217 227 228 227 240 249 254 254 249 245
198 198 198 197 197 197 197 196 196 196 197 196 196 197 199 200 201 202 202 201 201 202 204 205 206 205 205 208 208 207 207 206 206 206 205 206 210 211 199 196 260 346 353 354 1 129 39 2 33 36 35 28 34 37 33 34 37 47 42 4 51 97 138 152 150 143 133 146 172 178 229 246 239 227 216 213 224 228 215 220 239 243 247 253 252
199 198 198 197 197 197 197 197 196 197 199 198 199 200 202 203 203 204 204 203 204 205 207 208 209 210 209 210 211 210 210 210 209 209 207 204 205 207 204 229 285 338 353 356 178 147 71 349 40 51 49 39 36 34 29 27 31 42 51 48 63 79 106 137 144 139 127 131 154 170 222 259 251 243 238 222 216 227 222 215 226 233 236 247 255
200 200 199 198 197 197 197 197 197 199 200 200 201 202 203 204 204 205 205 205 207 209 212 213 213 214 213 212 212 212 211 212 212 211 210 205 205 209 215 243 294 333 328 182 176 156 156 266 73 55 45 39 33 28 20 14 25 40 50 57 66 76 89 106 119 125 125 125 130 179 231 267 264 251 248 237 224 227 232 223 225 234 239 247 259
202 201 200 198 198 198 198 198 199 201 202 202 202 203 204 204 205 205 205 207 209 212 215 216 216 216 216 215 214 213 213 213 213 212 211 208 208 213 221 240 286 298 210 191 181 161 173 183 100 63 44 34 25 21 13 11 31 44 53 68 79 84 90 94 102 113 119 119 116 128 259 275 281 274 269 255 230 224 237 233 228 232 238 245 256
205 204 201 199 198 198 198 199 201 202 202 202 202 202 202 203 204 204 205 207 208 210 214 216 217 216 216 217 216 214 214 214 212 211 210 210 212 216 219 222 248 243 204 195 185 169 171 169 111 58 37 22 20 19 14 22 40 46 58 73 83 90 92 95 104 110 111 114 122 138 248 275 287 299 310 300 221 199 242 245 239 241 242 245 252
206 205 203 201 200 199 199 200 201 202 202 202 201 201 202 202 203 204 205 206 206 207 210 212 213 213 214 216 216 215 215 214 212 211 210 211 213 214 214 211 217 216 204 196 182 171 172 172 148 59 25 10 17 20 17 31 43 44 50 55 71 86 90 100 103 103 110 118 126 116 91 285 308 332 337 345 101 118 329 279 258 251 250 250 251
209 207 205 204 202 201 200 201 202 203 204 203 203 203 204 203 203 204 204 206 205 206 208 209 210 211 213 215 216 216 215 213 213 211 210 211 212 211 209 209 208 203 203 197 184 179 184 182 181 71 3 2 15 20 22 36 42 42 48 51 59 71 82 107 104 100 111 121 127 108 78 302 351 7 359 10 63 112 90 3 306 263 255 255 253
212 210 208 206 205 203 202 202 203 204 205 205 206 207 206 205 206 206 207 209 208 209 210 211 213 213 215 216 216 216 215 214 214 212 211 211 211 208 204 206 202 197 202 199 190 192 194 191 202 248 332 354 12 20 28 40 44 44 48 50 55 68 84 99 103 106 108 114 132 135 119 345 10 15 2 13 28 76 104 79 338 293 260 251 253
215 212 211 209 207 205 204 203 204 205 206 207 208 208 208 208 209 208 209 211 211 210 209 211 214 216 217 219 218 217 216 214 214 213 213 213 210 207 205 206 200 197 203 199 193 198 196 196 212 247 316 345 13 29 41 50 51 52 51 52 57 69 83 92 108 113 105 106 129 152 149 134 353 352 350 5 13 25 62 92 54 345 296 276 270
218 215 214 212 209 208 206 205 205 206 208 208 209 209 209 210 211 210 210 211 209 205 202 203 208 210 215 219 218 218 217 215 214 212 212 213 210 208 208 206 202 202 204 200 197 201 198 201 215 239 299 328 36 57 63 65 62 59 57 56 59 63 68 88 111 117 126 138 129 106 154 220 291 312 349 350 343 342 3 52 54 11 26 31 358
221 218 217 216 212 210 208 207 208 209 210 209 209 210 210 211 212 212 213 212 207 201 197 198 201 204 209 215 218 219 219 217 215 213 212 212 210 209 211 209 206 205 204 203 201 199 200 206 213 230 273 279 119 100 85 78 73 68 61 58 58 60 65 74 93 114 129 140 139 153 207 251 297 298 314 312 291 310 334 358 11 1 4 22 11
224 221 218 217 215 213 210 210 210 211 211 210 210 210 210 211 212 213 213 212 208 201 198 200 201 203 208 214 219 223 223 221 218 215 212 212 210 210 213 213 213 210 206 206 202 198 204 208 210 225 238 202 154 120 99 85 78 74 66 59 57 56 59 66 77 95 95 96 133 201 235 254 299 300 298 299 289 298 317 329 336 343 333 329 331
225 222 220 218 217 216 213 212 212 213 213 211 210 210 209 210 211 213 213 212 210 205 203 206 208 211 213 216 222 225 229 229 225 220 215 213 211 211 214 216 218 215 208 206 203 200 205 207 208 220 212 188 166 133 109 92 82 78 69 59 56 56 57 61 68 79 84 83 97 129 229 260 293 297 291 297 293 286 287 296 306 307 300 301 301
Height
3183 3185 3187 3188 3189 3190 3192 3194 3196 3197 3198 3200 3201 3203 3204 3205 3206 3207 3208 3209 3209 3209 3210 3210 3211 3211 3212 3212 3212 3213 3213 3214 3214 3214 3214 3213 3213 3213 3213 3213 3213 3214 3214 3214 3214 3214 3214 3214 3213 3213 3213 3213 3213 3213 3213 3212 3211 3211 3211 3210 3210 3209 3209 3208 3208 3208 3208 3209 3209 3210 3211 3212 3212 3213 3213 3214 3214 3214 3214 3215 3215 3216 3216 3217 3217
3184 3186 3188 3191 3192 3191 3194 3196 3197 3198 3200 3202 3203 3205 3206 3207 3208 3209 3209 3210 3210 3210 3211 3211 3212 3213 3213 3213 3213 3214 3214 3215 3215 3215 3214 3214 3214 3214 3214 3214 3215 3215 3215 3215 3215 3215 3214 3214 3214 3213 3213 3213 3213 3213 3213 3212 3212 3212 3211 3211 3211 3210 3209 3209 3209 3209 3209 3210 3210 3211 3211 3212 3213 3214 3214 3214 3215 3215 3215 3215 3215 3216 3216 3217 3217
3186 3187 3190 3192 3193 3192 3195 3197 3197 3199 3201 3203 3205 3206 3207 3208 3209 3210 3211 3211 3211 3212 3212 3213 3213 3214 3214 3214 3215 3215 3216 3216 3216 3215 3215 3215 3215 3215 3215 3215 3216 3216 3216 3215 3215 3215 3215 3215 3214 3214 3214 3214 3214 3214 3213 3213 3213 3212 3212 3212 3211 3211 3210 3210 3210 3210 3211 3211 3211 3212 3212 3213 3213 3214 3215 3215 3215 3215 3215 3215 3215 3215 3216 3216 3217
3187 3188 3190 3192 3193 3194 3196 3197 3198 3201 3203 3205 3206 3207 3208 3209 3210 3211 3212 3212 3212 3213 3213 3214 3215 3215 3215 3215 3216 3216 3217 3217 3217 3216 3216 3216 3216 3216 3216 3216 3217 3217 3217 3216 3216 3216 3216 3216 3215 3215 3215 3215 3214 3214 3214 3214 3213 3213 3213 3212 3212 3212 3211 3211 3211 3211 3211 3212 3212 3213 3213 3213 3214 3214 3215 3215 3215 3215 3215 3215 3215 3215 3216 3216 3217
3189 3190 3191 3192 3194 3195 3197 3198 3200 3203 3204 3206 3207 3208 3210 3211 3212 3212 3213 3213 3213 3214 3215 3215 3216 3216 3216 3217 3217 3217 3217 3218 3218 3217 3217 3217 3217 3217 3217 3218 3218 3218 3218 3217 3217 3217 3217 3216 3216 3216 3216 3215 3215 3215 3215 3214 3214 3214 3214 3213 3213 3213 3212 3212 3212 3212 3212 3213 3213 3214 3214 3214 3214 3214 3215 3215 3216 3215 3215 3215 3215 3215 3216 3216 3217
3190 3192 3193 3194 3195 3197 3198 3200 3202 3205 3206 3207 3208 3210 3211 3212 3213 3213 3214 3214 3215 3215 3216 3216 3217 3217 3217 3218 3218 3218 3218 3218 3218 3218 3218 3218 3218 3218 3219 3219 3219 3219 3219 3218 3218 3218 3218 3217 3217 3217 3217 3216 3216 3216 3215 3215 3215 3215 3215 3214 3214 3213 3213 3213 3213 3213 3213 3213 3214 3215 3215 3214 3214 3214 3215 3216 3216 3216 3216 3216 3216 3216 3216 3216 3217
3192 3193 3194 3196 3197 3198 3200 3202 3204 3206 3207 3208 3209 3211 3212 3213 3214 3215 3215 3215 3216 3217 3217 3217 3218 3218 3218 3219 3219 3219 3219 3219 3219 3219 3219 3219 3219 3219 3220 3220 3220 3220 3219 3219 3219 3219 3218 3218 3218 3218 3218 3217 3217 3216 3216 3216 3216 3216 3216 3215 3215 3214 3214 3214 3214 3214 3213 3213 3214 3216 3215 3215 3215 3215 3216 3216 3216 3216 3216 3216 3216 3216 3216 3217 3217
3193 3194 3196 3197 3199 3200 3201 3203 3206 3207 3208 3209 3210 3212 3213 3214 3215 3216 3216 3217 3217 3218 3218 3218 3219 3219 3219 3219 3220 3220 3220 3220 3220 3220 3220 3220 3220 3220 3221 3221 3220 3220 3220 3220 3220 3220 3220 3219 3219 3219 3218 3218 3217 3217 3217 3217 3217 3217 3217 3216 3216 3215 3215 3215 3215 3214 3214 3213 3214 3216 3215 3215 3216 3216 3217 3217 3217 3217 3217 3217 3217 3217 3217 3217 3218
3194 3196 3197 3199 3200 3202 3203 3205 3207 3208 3209 3210 3212 3213 3214 3215 3216 3217 3217 3218 3218 3219 3219 3220 3220 3220 3220 3220 3221 3221 3221 3221 3221 3221 3221 3221 3221 3221 3221 3221 3221 3221 3221 3221 3221 3221 3221 3220 3220 3220 3219 3218 3218 3218 3217 3217 3218 3218 3217 3217 3217 3216 3216 3216 3216 3215 3215 3214 3216 3217 3216 3217 3217 3217 3218 3218 3218 3217 3217 3217 3217 3218 3218 3218 3219
3195 3197 3199 3200 3201 3203 3204 3206 3208 3209 3210 3211 3213 3214 3215 3216 3217 3218 3218 3219 3219 3220 3220 3221 3221 3221 3221 3221 3222 3222 3222 3222 3222 3222 3222 3222 3222 3222 3222 3222 3222 3222 3222 3222 3222 3222 3221 3221 3221 3220 3220 3219 3219 3219 3218 3219 3219 3218 3218 3218 3218 3217 3217 3217 3217 3217 3216 3216 3217 3218 3217 3218 3218 3218 3218 3218 3218 3218 3218 3218 3218 3219 3219 3219 3219
3196 3198 3200 3201 3202 3204 3206 3207 3209 3210 3211 3212 3214 3215 3216 3217 3218 3218 3219 3220 3220 3221 3221 3222 3222 3222 3222 3222 3222 3223 3223 3223 3223 3222 3223 3223 3223 3223 3223 3223 3223 3223 3223 3223 3223 3223 3222 3222 3222 3221 3221 3220 3220 3220 3219 3220 3220 3219 3219 3219 3218 3218 3218 3218 3218 3218 3217 3217 3218 3219 3218 3219 3219 3219 3219 3219 3219 3219 3219 3219 3219 3219 3220 3220 3220
3197 3199 3201 3202 3203 3205 3207 3208 3210 3210 3211 3213 3215 3216 3217 3218 3219 3219 3220 3221 3222 3222 3222 3223 3222 3222 3223 3223 3223 3224 3224 3224 3224 3224 3224 3224 3224 3224 3224 3224 3224 3224 3224 3224 3224 3224 3223 3223 3223 3222 3222 3221 3221 3220 3220 3220 3220 3220 3220 3219 3219 3219 3219 3218 3218 3218 3218 3218 3218 3219 3220 3220 3220 3220 3220 3220 3220 3220 3220 3221 3220 3220 3221 3221 3221
3198 3199 3201 3203 3204 3206 3208 3209 3210 3211 3212 3214 3216 3217 3218 3219 3220 3220 3221 3222 3223 3223 3223 3223 3223 3224 3224 3224 3225 3225 3225 3225 3225 3225 3225 3225 3225 3225 3225 3225 3225 3225 3225 3225 3225 3225 3224 3224 3223 3223 3222 3222 3222 3221 3221 3221 3221 3221 3220 3220 3220 3220 3220 3219 3219 3219 3219 3219 3219 3219 3221 3221 3220 3220 3220 3221 3221 3221 3221 3221 3221 3221 3221 3221 3222
3198 3199 3201 3203 3204 3206 3207 3208 3210 3211 3213 3215 3217 3218 3219 3220 3220 3221 3222 3223 3223 3224 3224 3224 3224 3225 3225 3225 3226 3226 3226 3226 3226 3226 3226 3226 3226 3226 3226 3226 3226 3226 3226 3226 3226 3225 3225 3224 3224 3224 3223 3223 3222 3222 3222 3222 3221 3221 3221 3221 3221 3220 3220 3220 3220 3219 3219 3220 3220 3220 3220 3220 3220 3221 3221 3221 3221 3221 3221 3222 3222 3222 3222 3222 3223
3199 3200 3201 3203 3204 3206 3207 3209 3211 3212 3214 3216 3217 3218 3219 3220 3221 3222 3223 3223 3224 3224 3225 3225 3225 3226 3226 3226 3226 3227 3227 3227 3227 3227 3227 3227 3227 3227 3227 3227 3227 3227 3227 3227 3226 3226 3226 3225 3225 3225 3224 3224 3223 3223 3223 3223 3222 3222 3222 3221 3221 3221 3221 3220 3220 3220 3220 3220 3220 3220 3220 3220 3221 3221 3221 3221 3221 3221 3221 3222 3222 3222 3222 3223 3223
3200 3201 3202 3204 3205 3207 3208 3210 3212 3213 3215 3216 3218 3219 3220 3221 3222 3222 3223 3224 3224 3225 3226 3226 3226 3227 3227 3227 3227 3228 3228 3228 3228 3228 3228 3228 3228 3228 3228 3228 3228 3228 3228 3227 3227 3227 3226 3226 3226 3226 3225 3225 3224 3224 3224 3223 3223 3223 3223 3222 3222 3222 3221 3221 3221 3221 3220 3220 3220 3221 3221 3221 3221 3221 3221 3221 3221 3221 3222 3222 3222 3223 3223 3223 3223
3200 3202 3203 3205 3206 3208 3209 3211 3212 3214 3215 3217 3218 3219 3220 3221 3222 3223 3224 3224 3225 3226 3226 3227 3227 3227 3228 3228 3228 3228 3229 3229 3228 3229 3229 3229 3229 3228 3228 3228 3228 3228 3228 3228 3228 3228 3227 3227 3227 3227 3226 3226 3225 3225 3224 3224 3224 3224 3224 3223 3223 3222 3222 3221 3221 3221 3221 3221 3221 3221 3221 3222 3222 3222 3222 3222 3222 3222 3222 3222 3223 3223 3223 3224 3224
3201 3202 3204 3205 3207 3208 3210 3211 3213 3214 3215 3217 3218 3220 3221 3222 3223 3223 3224 3225 3225 3226 3227 3227 3228 3228 3228 3228 3229 3229 3229 3229 3229 3229 3229 3229 3229 3229 3229 3229 3229 3229 3229 3229 3229 3228 3228 3228 3228 3228 3227 3227 3226 3225 3225 3225 3224 3224 3224 3224 3223 3223 3223 3222 3222 3221 3221 3221 3221 3221 3221 3221 3222 3222 3222 3222 3222 3222 3223 3223 3223 3224 3224 3224 3224
3201 3203 3204 3206 3207 3209 3210 3211 3213 3214 3215 3217 3218 3220 3221 3222 3223 3223 3224 3225 3226 3227 3227 3228 3228 3228 3229 3229 3229 3229 3229 3229 3229 3229 3229 3229 3229 3229 3229 3229 3229 3229 3229 3229 3229 3229 3229 3229 3229 3228 3228 3227 3227 3226 3225 3225 3225 3225 3225 3224 3224 3223 3223 3223 3222 3222 3222 3222 3221 3222 3222 3222 3222 3222 3222 3223 3223 3223 3223 3224 3224 3224 3225 3225 3225
3201 3203 3204 3205 3207 3209 3210 3211 3213 3214 3216 3217 3218 3220 3221 3222 3223 3224 3224 3225 3226 3227 3227 3228 3228 3229 3229 3229 3229 3230 3230 3229 3229 3230 3230 3229 3229 3230 3230 3230 3230 3230 3230 3230 3230 3230 3230 3229 3229 3229 3228 3228 3227 3227 3226 3226 3225 3225 3225 3225 3224 3224 3223 3223 3223 3223 3222 3222 3222 3222 3222 3222 3222 3222 3223 3223 3223 3223 3224 3224 3224 3225 3225 3225 3226
3201 3202 3204 3205 3207 3209 3210 3211 3213 3214 3216 3217 3218 3220 3221 3222 3223 3224 3224 3225 3226 3227 3228 3228 3229 3229 3229 3230 3230 3230 3230 3230 3230 3230 3230 3230 3230 3230 3230 3230 3230 3230 3231 3231 3231 3231 3230 3230 3230 3230 3229 3228 3228 3227 3227 3227 3226 3226 3226 3225 3225 3225 3224 3224 3223 3223 3222 3223 3223 3223 3223 3223 3223 3223 3223 3223 3223 3223 3224 3224 3225 3225 3225 3226 3226
3200 3202 3203 3205 3206 3208 3210 3211 3212 3214 3216 3217 3218 3219 3221 3222 3223 3224 3225 3225 3226 3227 3228 3229 3229 3229 3230 3230 3230 3230 3230 3230 3230 3230 3230 3230 3230 3230 3231 3231 3231 3231 3231 3231 3231 3231 3231 3231 3230 3230 3230 3229 3229 3228 3227 3227 3227 3227 3226 3226 3226 3226 3225 3224 3224 3223 3223 3223 3223 3223 3223 3223 3223 3223 3223 3223 3223 3223 3224 3224 3225 3225 3226 3226 3226
3200 3201 3203 3204 3206 3208 3209 3211 3212 3214 3215 3217 3218 3219 3221 3222 3223 3224 3225 3225 3226 3227 3228 3229 3229 3229 3230 3230 3230 3230 3231 3231 3231 3231 3231 3231 3231 3231 3231 3231 3231 3231 3231 3231 3231 3231 3231 3231 3230 3230 3230 3230 3230 3229 3228 3228 3228 3228 3227 3227 3227 3226 3226 3225 3225 3224 3224 3224 3223 3224 3223 3223 3223 3223 3223 3223 3224 3224 3224 3224 3225 3225 3226 3226 3226
3199 3201 3203 3204 3206 3207 3209 3211 3212 3213 3215 3216 3218 3219 3220 3221 3222 3223 3224 3225 3226 3227 3228 3229 3229 3229 3230 3230 3230 3231 3231 3231 3231 3231 3231 3231 3231 3231 3231 3231 3231 3231 3231 3231 3231 3231 3231 3231 3231 3231 3231 3230 3230 3229 3229 3229 3229 3229 3228 3228 3227 3227 3226 3226 3225 3224 3224 3224 3223 3224 3223 3223 3223 3223 3223 3223 3224 3224 3224 3225 3225 3225 3226 3226 3226
3199 3201 3202 3204 3205 3207 3209 3210 3212 3213 3215 3216 3217 3219 3220 3221 3222 3223 3224 3225 3226 3227 3227 3228 3229 3229 3230 3230 3230 3231 3231 3231 3231 3231 3232 3232 3232 3231 3231 3231 3232 3232 3232 3232 3231 3231 3231 3231 3231 3231 3231 3230 3230 3229 3229 3229 3229 3229 3229 3228 3228 3227 3227 3226 3225 3224 3225 3224 3223 3223 3223 3223 3223 3223 3223 3223 3224 3224 3225 3225 3225 3225 3225 3226 3227
3199 3201 3202 3204 3205 3207 3209 3210 3211 3213 3214 3216 3217 3218 3220 3221 3222 3223 3224 3225 3226 3226 3227 3228 3229 3229 3230 3230 3230 3231 3231 3231 3232 3232 3232 3232 3232 3232 3232 3232 3232 3232 3232 3232 3232 3231 3231 3231 3231 3231 3230 3230 3230 3229 3229 3229 3229 3229 3229 3228 3228 3228 3227 3226 3225 3224 3224 3224 3223 3223 3223 3223 3224 3224 3224 3223 3224 3224 3225 3225 3225 3226 3226 3226 3227
3198 3200 3202 3203 3205 3206 3208 3209 3211 3212 3214 3215 3217 3218 3219 3220 3222 3223 3224 3225 3225 3226 3227 3228 3228 3229 3229 3230 3231 3231 3231 3231 3232 3232 3232 3232 3232 3232 3232 3232 3232 3232 3232 3232 3232 3232 3231 3231 3231 3231 3230 3230 3229 3229 3229 3229 3228 3229 3229 3229 3228 3228 3227 3226 3225 3225 3224 3224 3223 3223 3223 3223 3224 3225 3224 3224 3224 3224 3225 3225 3226 3226 3226 3227 3227
3198 3200 3201 3203 3204 3206 3207 3209 3210 3212 3213 3215 3216 3217 3219 3220 3221 3222 3223 3224 3225 3226 3227 3227 3228 3229 3229 3230 3231 3231 3231 3232 3232 3232 3232 3232 3232 3232 3232 3232 3232 3233 3233 3233 3233 3232 3232 3231 3231 3231 3230 3230 3229 3229 3229 3229 3228 3228 3228 3228 3228 3228 3228 3227 3225 3225 3224 3224 3223 3223 3223 3223 3224 3224 3224 3225 3225 3225 3225 3226 3226 3226 3226 3227 3227
3197 3199 3201 3202 3204 3205 3207 3208 3210 3211 3213 3214 3216 3217 3218 3219 3220 3222 3223 3224 3225 3226 3226 3227 3228 3228 3229 3230 3230 3231 3231 3232 3232 3232 3232 3232 3232 3232 3232 3233 3233 3233 3233 3233 3233 3233 3232 3232 3231 3231 3230 3230 3229 3229 3229 3229 3228 3228 3228 3228 3228 3228 3227 3227 3225 3225 3224 3224 3224 3223 3223 3224 3224 3224 3224 3225 3225 3225 3226 3226 3226 3226 3226 3227 3227
3197 3199 3200 3202 3203 3205 3206 3208 3209 3211 3212 3214 3215 3217 3218 3219 3220 3221 3222 3223 3224 3225 3226 3227 3227 3228 3229 3229 3230 3231 3231 3232 3232 3232 3232 3233 3232 3232 3233 3233 3233 3233 3233 3233 3233 3233 3232 3232 3231 3231 3230 3230 3229 3229 3230 3229 3228 3228 3228 3227 3227 3227 3226 3226 3225 3225 3224 3224 3224 3223 3223 3224 3225 3225 3224 3225 3225 3225 3226 3226 3225 3226 3227 3227 3227
3196 3198 3200 3201 3203 3204 3206 3207 3209 3210 3212 3213 3215 3216 3217 3218 3219 3221 3222 3223 3224 3225 3225 3226 3227 3228 3229 3229 3230 3230 3231 3231 3232 3232 3232 3233 3233 3233 3233 3233 3233 3233 3233 3233 3233 3233 3232 3232 3232 3231 3231 3230 3230 3230 3230 3229 3228 3228 3228 3227 3227 3226 3226 3225 3225 3224 3224 3223 3224 3223 3224 3224 3225 3225 3225 3225 3225 3225 3226 3226 3226 3227 3227 3227 3227
3195 3197 3199 3200 3202 3204 3205 3207 3208 3210 3211 3213 3214 3215 3217 3218 3219 3220 3221 3222 3223 3224 3225 3226 3227 3227 3228 3229 3230 3230 3231 3231 3232 3232 3232 3232 3232 3232 3233 3233 3232 3233 3233 3232 3232 3232 3232 3232 3231 3231 3231 3230 3230 3229 3229 3229 3228 3228 3227 3227 3226 3226 3225 3225 3224 3224 3223 3224 3224 3224 3224 3224 3223 3224 3225 3226 3226 3226 3226 3226 3226 3227 3227 3227 3228
3195 3196 3198 3199 3201 3203 3205 3206 3207 3209 3210 3212 3213 3215 3216 3217 3218 3220 3221 3222 3223 3224 3224 3225 3226 3227 3228 3229 3229 3230 3230 3231 3231 3232 3232 3232 3232 3232 3232 3232 3232 3232 3232 3232 3232 3232 3232 3231 3231 3231 3231 3230 3230 3229 3229 3228 3228 3227 3227 3227 3226 3225 3225 3224 3224 3223 3223 3224 3224 3224 3224 3223 3223 3224 3225 3225 3226 3227 3227 3227 3227 3227 3226 3227 3228
3194 3196 3197 3199 3200 3202 3204 3205 3206 3208 3210 3211 3213 3214 3215 3217 3218 3219 3220 3221 3222 3223 3224 3225 3225 3226 3227 3228 3229 3229 3230 3230 3231 3232 3232 3232 3232 3232 3232 3232 3232 3232 3232 3232 3232 3231 3231 3231 3230 3230 3230 3230 3229 3229 3228 3228 3227 3227 3226 3226 3225 3225 3225 3224 3223 3223 3223 3224 3224 3224 3224 3224 3224 3225 3225 3225 3226 3226 3226 3226 3226 3227 3226 3227 3228
3193 3195 3197 3198 3200 3201 3203 3204 3206 3207 3209 3210 3212 3213 3214 3216 3217 3218 3219 3220 3221 3222 3223 3224 3225 3226 3227 3227 3228 3229 3229 3230 3231 3231 3232 3232 3232 3232 3233 3233 3233 3232 3232 3232 3232 3231 3231 3231 3230 3230 3230 3229 3229 3228 3228 3228 3227 3226 3226 3225 3225 3225 3224 3223 3222 3222 3223 3224 3224 3225 3224 3224 3225 3225 3225 3226 3226 3226 3226 3226 3226 3226 3227 3227 3227
3193 3194 3196 3198 3199 3201 3202 3204 3205 3207 3208 3210 3211 3212 3213 3215 3216 3218 3219 3220 3221 3222 3223 3224 3225 3225 3226 3227 3227 3228 3229 3229 3230 3231 3231 3232 3232 3232 3233 3233 3233 3233 3233 3232 3232 3232 3231 3231 3231 3230 3230 3229 3229 3228 3227 3227 3227 3226 3225 3224 3224 3224 3223 3222 3222 3222 3223 3224 3224 3224 3224 3224 3224 3225 3225 3225 3225 3225 3225 3225 3225 3226 3226 3227 3227
3192 3193 3195 3197 3199 3200 3202 3203 3205 3206 3208 3209 3210 3211 3213 3214 3215 3217 3218 3219 3220 3221 3222 3223 3224 3225 3226 3226 3227 3227 3228 3229 3230 3230 3231 3231 3232 3232 3232 3233 3233 3233 3233 3232 3232 3232 3232 3231 3231 3230 3230 3229 3229 3228 3227 3226 3226 3225 3224 3224 3223 3222 3222 3222 3222 3222 3223 3224 3224 3224 3224 3224 3224 3225 3225 3225 3225 3225 3225 3225 3225 3225 3226 3226 3226
3191 3192 3194 3196 3198 3199 3201 3203 3204 3206 3207 3208 3209 3211 3212 3213 3214 3216 3217 3218 3219 3220 3221 3222 3223 3224 3225 3226 3227 3227 3228 3228 3229 3230 3230 3231 3231 3231 3232 3232 3232 3232 3232 3232 3232 3232 3232 3231 3231 3230 3230 3229 3229 3228 3227 3226 3225 3224 3224 3223 3222 3221 3221 3221 3221 3222 3223 3224 3224 3224 3225 3224 3224 3224 3224 3224 3224 3224 3225 3225 3225 3225 3225 3225 3226
3189 3191 3192 3194 3196 3198 3200 3201 3203 3204 3205 3207 3208 3209 3211 3212 3213 3214 3216 3217 3218 3219 3221 3222 3223 3224 3225 3226 3226 3227 3227 3228 3229 3229 3230 3230 3231 3231 3231 3231 3232 3231 3231 3231 3231 3231 3231 3231 3231 3230 3229 3229 3228 3227 3226 3225 3224 3224 3223 3222 3221 3220 3220 3220 3221 3221 3222 3223 3224 3224 3224 3224 3224 3224 3224 3224 3224 3224 3225 3225 3225 3225 3225 3225 3225
3187 3189 3190 3192 3194 3196 3198 3199 3201 3203 3204 3205 3206 3207 3209 3210 3212 3213 3215 3216 3217 3219 3220 3221 3222 3223 3224 3225 3225 3226 3227 3227 3228 3229 3229 3230 3230 3230 3231 3231 3231 3231 3231 3230 3231 3231 3231 3231 3230 3229 3229 3228 3227 3227 3226 3225 3224 3223 3222 3222 3221 3220 3220 3220 3220 3221 3222 3223 3224 3224 3224 3224 3224 3224 3223 3224 3224 3224 3224 3224 3224 3224 3225 3225 3224
3185 3187 3189 3191 3192 3194 3196 3198 3200 3201 3202 3203 3205 3206 3208 3210 3211 3213 3214 3216 3217 3218 3219 3220 3221 3222 3223 3224 3225 3225 3226 3227 3227 3228 3229 3229 3229 3230 3230 3230 3230 3231 3230 3230 3230 3230 3230 3230 3230 3229 3229 3228 3227 3227 3226 3225 3224 3223 3222 3221 3221 3220 3220 3220 3220 3220 3221 3222 3223 3224 3224 3223 3223 3223 3222 3222 3223 3223 3223 3223 3223 3223 3223 3224 3224
3183 3185 3187 3189 3191 3193 3195 3197 3198 3199 3201 3202 3204 3206 3208 3209 3211 3212 3214 3215 3216 3217 3218 3219 3220 3221 3222 3223 3224 3225 3225 3226 3227 3227 3228 3228 3229 3229 3230 3230 3230 3230 3230 3230 3230 3230 3230 3230 3230 3229 3229 3228 3228 3227 3226 3225 3223 3223 3222 3221 3220 3220 3220 3220 3220 3221 3221 3222 3223 3224 3224 3223 3222 3222 3221 3221 3222 3222 3223 3222 3223 3223 3223 3223 3223
3182 3183 3185 3187 3189 3191 3193 3195 3196 3198 3200 3201 3203 3205 3207 3208 3210 3211 3213 3214 3215 3216 3217 3218 3219 3220 3221 3222 3223 3224 3225 3226 3226 3227 3227 3228 3228 3229 3229 3229 3229 3229 3230 3230 3230 3230 3230 3230 3230 3229 3229 3228 3228 3227 3226 3225 3224 3223 3222 3221 3221 3221 3221 3221 3220 3221 3222 3223 3223 3224 3224 3223 3222 3222 3221 3221 3221 3222 3222 3222 3222 3222 3223 3223 3223
3180 3182 3184 3185 3187 3189 3191 3193 3195 3197 3199 3200 3202 3204 3206 3207 3208 3209 3211 3212 3213 3214 3215 3216 3217 3218 3220 3221 3222 3223 3224 3225 3225 3226 3226 3227 3227 3228 3228 3229 3229 3229 3229 3230 3230 3230 3230 3230 3230 3229 3229 3228 3228 3227 3227 3225 3224 3223 3222 3222 3221 3221 3222 3221 3221 3222 3222 3223 3223 3223 3224 3223 3222 3221 3221 3221 3221 3221 3221 3221 3221 3221 3222 3222 3222
3178 3180 3182 3184 3185 3188 3190 3192 3194 3196 3198 3199 3201 3202 3204 3205 3206 3207 3208 3210 3211 3212 3213 3215 3216 3217 3219 3220 3221 3222 3223 3224 3225 3225 3226 3226 3227 3227 3227 3228 3228 3229 3229 3230 3230 3230 3230 3230 3230 3230 3229 3229 3229 3228 3227 3226 3224 3223 3223 3222 3222 3222 3222 3222 3222 3222 3222 3223 3223 3223 3223 3223 3222 3222 3221 3221 3221 3221 3221 3221 3221 3221 3221 3221 3221
3177 3179 3181 3182 3184 3186 3188 3190 3192 3194 3196 3198 3199 3201 3202 3203 3204 3206 3207 3209 3211 3212 3213 3214 3215 3217 3218 3219 3220 3221 3222 3223 3224 3224 3225 3226 3226 3226 3227 3227 3228 3229 3229 3229 3229 3229 3230 3230 3230 3230 3230 3229 3229 3228 3227 3226 3225 3224 3223 3222 3222 3222 3222 3222 3222 3223 3222 3223 3223 3223 3223 3223 3222 3222 3221 3221 3221 3221 3221 3221 3221 3221 3221 3221 3221
3175 3177 3179 3181 3183 3185 3187 3189 3190 3192 3194 3196 3197 3199 3200 3202 3203 3205 3207 3209 3210 3211 3213 3214 3215 3216 3217 3218 3219 3220 3221 3222 3223 3223 3224 3225 3225 3226 3226 3227 3227 3228 3228 3228 3229 3229 3229 3230 3230 3230 3230 3229 3229 3228 3227 3226 3225 3224 3224 3223 3222 3222 3222 3222 3222 3223 3223 3223 3223 3222 3222 3222 3222 3222 3221 3221 3221 3222 3221 3221 3221 3221 3221 3221 3221
3174 3175 3177 3179 3181 3184 3186 3187 3189 3191 3192 3194 3196 3197 3199 3201 3203 3205 3206 3208 3209 3211 3212 3213 3213 3214 3215 3216 3217 3218 3219 3220 3221 3222 3223 3224 3224 3225 3225 3226 3227 3227 3228 3228 3228 3229 3229 3229 3230 3229 3229 3229 3228 3228 3227 3226 3226 3225 3224 3224 3223 3222 3222 3222 3222 3222 3223 3223 3223 3222 3222 3222 3222 3221 3221 3221 3221 3221 3222 3221 3221 3221 3221 3221 3221
3172 3174 3176 3178 3180 3182 3184 3186 3187 3189 3191 3192 3194 3196 3198 3200 3202 3203 3205 3206 3208 3209 3210 3211 3212 3213 3214 3215 3216 3217 3218 3219 3220 3221 3222 3223 3223 3224 3225 3225 3226 3226 3227 3227 3228 3228 3229 3229 3229 3229 3229 3229 3228 3228 3227 3227 3226 3226 3225 3224 3224 3223 3222 3222 3222 3222 3222 3223 3223 3223 3223 3222 3222 3222 3221 3221 3221 3221 3221 3221 3221 3221 3221 3220 3220
3170 3172 3173 3175 3177 3179 3181 3183 3185 3187 3189 3191 3192 3194 3196 3198 3200 3201 3203 3205 3206 3208 3209 3210 3210 3212 3213 3214 3215 3216 3217 3218 3219 3220 3221 3221 3222 3223 3224 3224 3225 3225 3226 3226 3227 3227 3228 3229 3229 3229 3229 3228 3228 3228 3227 3227 3227 3226 3226 3225 3224 3223 3223 3222 3222 3222 3222 3222 3222 3222 3223 3222 3222 3222 3222 3221 3221 3221 3220 3220 3221 3221 3220 3220 3220
3167 3169 3170 3172 3174 3176 3179 3181 3183 3185 3186 3188 3190 3192 3194 3196 3198 3200 3202 3204 3205 3206 3208 3209 3210 3211 3212 3213 3214 3214 3215 3216 3217 3218 3219 3220 3221 3222 3222 3223 3224 3224 3225 3225 3226 3227 3227 3228 3228 3228 3228 3228 3228 3228 3227 3227 3227 3227 3226 3225 3225 3224 3223 3223 3222 3222 3222 3222 3222 3222 3223 3223 3222 3222 3222 3221 3221 3220 3220 3220 3220 3220 3219 3219 3219